Location: İstanbul
(41.0082°N, 28.9784°E)
Time: 22:18:28
(UTC+03:00)

ITUPSAT 1 - Pass Details

Date: 03 May 2024
Orbit: 694 x 707 km, 98.5° (Epoch: 29 May)

Event Time Altitude Azimuth Distance (km) Brightness Sun altitude
Rises 00:38:19 0° 353° (N) 3,081 ? -33.0°
Reaches altitude 10° 00:41:43 10° 326° (NNW) 2,158 ? -33.1°
Maximum altitude 00:43:52 13° 299° (WNW) 1,949 ? -33.1°
Enters shadow 00:44:29 13° 291° (WNW) 1,966 ? -33.1°
